Location: Newark
(59.8814°N, 10.8258°E)
Time: 11:28:41
(UTC+00:00)

Envisat - Pass Details

Date: 28 January 2020
Orbit: 764 x 766 km, 98.1° (Epoch: 20 February)

Event Time Altitude Azimuth Distance (km) Brightness Sun altitude
Rises 17:19:58 0° 181° (S) 3,226 6.4 -14.5°
Reaches altitude 10° 17:22:21 10° 187° (S) 2,304 5.7 -14.8°
Maximum altitude 17:27:15 47° 261° (W) 1,009 4.1 -15.4°
Drops below altitude 10° 17:32:11 10° 336° (NNW) 2,319 5.7 -16.0°
Sets 17:34:36 0° 342° (NNW) 3,249 6.4 -16.3°
